Time,TemperatureF,DewpointF,PressureIn,WindDirection,WindDirectionDegrees,WindSpeedMPH,WindSpeedGustMPH,Humidity,HourlyPrecipIn,Conditions,Clouds,dailyrainin,SoftwareType,DateUTC
2013-01-06 00:00:00,44.2,38.4,30.07,ENE,68,0.0,0.0,80,0.00,,,0.00,WUHU216HW,2013-01-06 08:00:00,
2013-01-06 00:05:00,44.2,38.4,30.08,NNE,23,0.0,0.0,80,0.00,,,0.00,WUHU216HW,2013-01-06 08:05:00,
2013-01-06 00:10:00,44.2,38.7,30.09,NNE,23,0.0,0.0,81,0.00,,,0.00,WUHU216HW,2013-01-06 08:10:00,
2013-01-06 00:15:00,44.2,38.7,30.08,NNE,23,0.0,0.0,81,0.00,,,0.00,WUHU216HW,2013-01-06 08:15:00,
2013-01-06 00:20:00,44.2,38.7,30.08,NNE,23,0.0,0.0,81,0.00,,,0.00,WUHU216HW,2013-01-06 08:20:00,
2013-01-06 00:25:00,44.0,38.6,30.07,NNE,23,0.0,0.0,81,0.02,,,0.02,WUHU216HW,2013-01-06 08:25:00,
2013-01-06 00:30:00,44.0,38.6,30.07,ESE,113,0.0,0.0,81,0.02,,,0.02,WUHU216HW,2013-01-06 08:30:00,
2013-01-06 00:35:00,44.0,38.6,30.07,ESE,113,0.0,0.0,81,0.02,,,0.02,WUHU216HW,2013-01-06 08:35:00,
2013-01-06 00:40:00,44.0,38.6,30.07,SE,135,0.0,0.0,81,0.02,,,0.02,WUHU216HW,2013-01-06 08:40:00,
2013-01-06 00:45:00,44.0,38.6,30.07,SE,135,0.0,0.0,81,0.02,,,0.02,WUHU216HW,2013-01-06 08:45:00,
2013-01-06 00:50:00,44.0,38.6,30.07,SE,135,0.0,0.0,81,0.02,,,0.02,WUHU216HW,2013-01-06 08:50:00,
2013-01-06 00:55:00,44.0,38.6,30.07,SE,135,0.0,0.0,81,0.02,,,0.02,WUHU216HW,2013-01-06 08:55:00,
2013-01-06 01:00:00,44.0,38.6,30.07,SSE,158,0.0,0.0,81,0.02,,,0.02,WUHU216HW,2013-01-06 09:00:00,
2013-01-06 01:05:00,43.8,38.4,30.07,SSE,158,0.0,0.0,81,0.02,,,0.02,WUHU216HW,2013-01-06 09:05:00,
2013-01-06 01:10:00,43.7,38.2,30.07,SSE,158,0.0,0.0,81,0.02,,,0.02,WUHU216HW,2013-01-06 09:10:00,
2013-01-06 01:15:00,43.7,38.2,30.07,SSE,158,0.0,0.0,81,0.00,,,0.02,WUHU216HW,2013-01-06 09:15:00,
2013-01-06 01:20:00,43.7,38.2,30.07,SSE,158,0.0,0.0,81,0.00,,,0.02,WUHU216HW,2013-01-06 09:20:00,
2013-01-06 01:26:00,43.7,38.2,30.07,SSE,158,0.0,0.0,81,0.00,,,0.02,WUHU216HW,2013-01-06 09:26:00,
2013-01-06 01:31:00,43.7,38.2,30.08,SSE,158,0.0,0.0,81,0.00,,,0.02,WUHU216HW,2013-01-06 09:31:00,
2013-01-06 01:36:00,43.7,38.2,30.07,SSE,158,0.0,0.0,81,0.02,,,0.04,WUHU216HW,2013-01-06 09:36:00,
2013-01-06 01:41:00,43.7,38.2,30.07,SSE,158,0.0,0.0,81,0.04,,,0.06,WUHU216HW,2013-01-06 09:41:00,
2013-01-06 01:46:00,43.7,38.2,30.08,SSE,158,0.0,0.0,81,0.04,,,0.06,WUHU216HW,2013-01-06 09:46:00,
2013-01-06 01:51:00,43.7,38.2,30.08,SSE,158,0.0,0.0,81,0.04,,,0.06,WUHU216HW,2013-01-06 09:51:00,
2013-01-06 01:56:00,43.7,38.2,30.08,SSE,158,0.0,0.0,81,0.04,,,0.06,WUHU216HW,2013-01-06 09:56:00,
2013-01-06 02:01:00,43.7,38.2,30.08,SSE,158,0.0,0.0,81,0.04,,,0.06,WUHU216HW,2013-01-06 10:01:00,
2013-01-06 02:06:00,43.7,38.2,30.08,SSE,158,0.0,0.0,81,0.04,,,0.06,WUHU216HW,2013-01-06 10:06:00,
2013-01-06 02:11:00,43.5,38.0,30.08,SSE,158,0.0,0.0,81,0.04,,,0.06,WUHU216HW,2013-01-06 10:11:00,
2013-01-06 02:16:00,43.5,38.3,30.08,SSE,158,0.0,0.0,82,0.04,,,0.06,WUHU216HW,2013-01-06 10:16:00,
2013-01-06 02:21:00,43.5,38.3,30.08,SSE,158,0.0,0.0,82,0.04,,,0.06,WUHU216HW,2013-01-06 10:21:00,
2013-01-06 02:26:00,43.5,38.3,30.09,SSE,158,0.0,0.0,82,0.04,,,0.06,WUHU216HW,2013-01-06 10:26:00,
2013-01-06 02:31:00,43.5,38.3,30.09,SSE,158,0.0,0.0,82,0.04,,,0.06,WUHU216HW,2013-01-06 10:31:00,
2013-01-06 02:36:00,43.5,38.3,30.09,SSE,158,0.0,0.0,82,0.00,,,0.06,WUHU216HW,2013-01-06 10:36:00,
2013-01-06 02:41:00,43.5,38.3,30.09,SSE,158,0.0,0.0,82,0.00,,,0.06,WUHU216HW,2013-01-06 10:41:00,
2013-01-06 02:46:00,43.5,38.3,30.09,SSE,158,0.0,0.0,82,0.00,,,0.06,WUHU216HW,2013-01-06 10:46:00,
2013-01-06 02:51:00,43.5,38.3,30.09,SSE,158,0.0,0.0,82,0.00,,,0.06,WUHU216HW,2013-01-06 10:51:00,
2013-01-06 02:56:00,43.5,38.6,30.09,SSE,158,0.0,0.0,83,0.02,,,0.08,WUHU216HW,2013-01-06 10:56:00,
2013-01-06 03:01:00,43.5,38.6,30.09,SSE,158,0.0,0.0,83,0.02,,,0.08,WUHU216HW,2013-01-06 11:01:00,
2013-01-06 03:06:00,43.5,38.6,30.09,SSE,158,0.0,0.0,83,0.02,,,0.08,WUHU216HW,2013-01-06 11:06:00,
2013-01-06 03:11:00,43.5,38.6,30.09,SSE,158,0.0,0.0,83,0.04,,,0.10,WUHU216HW,2013-01-06 11:11:00,
2013-01-06 03:16:00,43.5,38.6,30.09,SSE,158,0.0,0.0,83,0.04,,,0.10,WUHU216HW,2013-01-06 11:16:00,
2013-01-06 03:21:00,43.5,38.6,30.09,SSE,158,0.0,0.0,83,0.04,,,0.10,WUHU216HW,2013-01-06 11:21:00,
2013-01-06 03:26:00,43.7,38.8,30.09,SSE,158,0.0,0.0,83,0.04,,,0.10,WUHU216HW,2013-01-06 11:26:00,
2013-01-06 03:32:00,43.5,38.6,30.09,SSE,158,0.0,0.0,83,0.04,,,0.10,WUHU216HW,2013-01-06 11:32:00,
2013-01-06 03:37:00,43.7,38.8,30.08,SSE,158,0.0,0.0,83,0.04,,,0.10,WUHU216HW,2013-01-06 11:37:00,
2013-01-06 03:42:00,43.7,38.5,30.09,SSE,158,0.0,0.0,82,0.06,,,0.12,WUHU216HW,2013-01-06 11:42:00,
2013-01-06 03:47:00,43.7,38.8,30.09,SSE,158,0.0,0.0,83,0.08,,,0.12,WUHU216HW,2013-01-06 11:47:00,
2013-01-06 03:52:00,43.7,38.5,30.09,SSE,158,0.0,0.0,82,0.06,,,0.14,WUHU216HW,2013-01-06 11:52:00,
2013-01-06 03:57:00,43.7,38.5,30.08,SSE,158,0.0,0.0,82,0.06,,,0.14,WUHU216HW,2013-01-06 11:57:00,
2013-01-06 04:02:00,43.7,38.5,30.09,SSE,158,0.0,0.0,82,0.06,,,0.14,WUHU216HW,2013-01-06 12:02:00,
2013-01-06 04:07:00,43.7,38.5,30.08,SSE,158,0.0,0.0,82,0.04,,,0.14,WUHU216HW,2013-01-06 12:07:00,
2013-01-06 04:12:00,43.7,38.5,30.08,SSE,158,0.0,0.0,82,0.04,,,0.14,WUHU216HW,2013-01-06 12:12:00,
2013-01-06 04:17:00,43.7,38.5,30.08,SSE,158,0.0,0.0,82,0.04,,,0.14,WUHU216HW,2013-01-06 12:17:00,
2013-01-06 04:22:00,43.7,38.5,30.08,SSE,158,0.0,0.0,82,0.04,,,0.14,WUHU216HW,2013-01-06 12:22:00,
2013-01-06 04:27:00,43.8,38.7,30.08,SSE,158,0.0,0.0,82,0.04,,,0.14,WUHU216HW,2013-01-06 12:27:00,
2013-01-06 04:32:00,43.8,38.7,30.08,SSE,158,0.0,0.0,82,0.04,,,0.14,WUHU216HW,2013-01-06 12:32:00,
2013-01-06 04:37:00,43.8,38.7,30.08,SSE,158,0.0,0.0,82,0.04,,,0.14,WUHU216HW,2013-01-06 12:37:00,
2013-01-06 04:42:00,43.8,39.0,30.08,SSE,158,0.0,0.0,83,0.02,,,0.14,WUHU216HW,2013-01-06 12:42:00,
2013-01-06 04:47:00,43.8,39.0,30.08,SSE,158,0.0,0.0,83,0.00,,,0.14,WUHU216HW,2013-01-06 12:47:00,
2013-01-06 04:52:00,43.8,39.0,30.08,SSE,158,0.0,0.0,83,0.00,,,0.14,WUHU216HW,2013-01-06 12:52:00,
2013-01-06 04:57:00,43.8,39.0,30.08,SSE,158,0.0,0.0,83,0.00,,,0.14,WUHU216HW,2013-01-06 12:57:00,
2013-01-06 05:02:00,44.0,39.2,30.08,SSE,158,0.0,0.0,83,0.00,,,0.14,WUHU216HW,2013-01-06 13:02:00,
2013-01-06 05:07:00,44.0,39.2,30.08,SSE,158,0.0,0.0,83,0.00,,,0.14,WUHU216HW,2013-01-06 13:07:00,
2013-01-06 05:12:00,44.0,39.2,30.07,SSE,158,0.0,0.0,83,0.00,,,0.14,WUHU216HW,2013-01-06 13:12:00,
2013-01-06 05:17:00,44.0,39.2,30.08,SSE,158,0.0,0.0,83,0.00,,,0.14,WUHU216HW,2013-01-06 13:17:00,
2013-01-06 05:22:00,44.0,39.2,30.08,North,0,0.0,0.0,83,0.02,,,0.16,WUHU216HW,2013-01-06 13:22:00,
2013-01-06 05:27:00,44.2,39.3,30.08,East,90,0.0,0.4,83,0.02,,,0.16,WUHU216HW,2013-01-06 13:27:00,
2013-01-06 05:32:00,44.2,39.7,30.08,East,90,0.0,0.4,84,0.02,,,0.16,WUHU216HW,2013-01-06 13:32:00,
2013-01-06 05:37:00,44.2,39.7,30.08,East,90,0.0,0.0,84,0.02,,,0.16,WUHU216HW,2013-01-06 13:37:00,
2013-01-06 05:42:00,44.2,39.7,30.08,East,90,0.0,0.0,84,0.02,,,0.16,WUHU216HW,2013-01-06 13:42:00,
2013-01-06 05:47:00,44.4,39.8,30.08,WNW,293,0.0,0.0,84,0.02,,,0.16,WUHU216HW,2013-01-06 13:47:00,
2013-01-06 05:52:00,44.4,39.8,30.08,WNW,293,0.0,0.0,84,0.02,,,0.16,WUHU216HW,2013-01-06 13:52:00,
2013-01-06 05:57:00,44.4,39.8,30.09,SSE,158,0.0,0.0,84,0.02,,,0.16,WUHU216HW,2013-01-06 13:57:00,
2013-01-06 06:02:00,44.4,40.1,30.09,SE,135,0.0,0.0,85,0.02,,,0.16,WUHU216HW,2013-01-06 14:02:00,
2013-01-06 06:07:00,44.2,40.0,30.09,SE,135,0.0,0.0,85,0.02,,,0.16,WUHU216HW,2013-01-06 14:07:00,
2013-01-06 06:12:00,44.4,40.1,30.10,SE,135,0.0,0.0,85,0.04,,,0.18,WUHU216HW,2013-01-06 14:12:00,
2013-01-06 06:17:00,44.4,40.1,30.10,SE,135,0.0,0.0,85,0.04,,,0.18,WUHU216HW,2013-01-06 14:17:00,
2013-01-06 06:22:00,44.2,40.0,30.10,SE,135,0.0,0.0,85,0.02,,,0.18,WUHU216HW,2013-01-06 14:22:00,
2013-01-06 06:27:00,44.2,40.0,30.10,SE,135,0.0,0.0,85,0.02,,,0.18,WUHU216HW,2013-01-06 14:27:00,
2013-01-06 06:32:00,44.2,40.0,30.10,SE,135,0.0,0.0,85,0.02,,,0.18,WUHU216HW,2013-01-06 14:32:00,
2013-01-06 06:37:00,44.2,40.0,30.10,SE,135,0.0,0.0,85,0.02,,,0.18,WUHU216HW,2013-01-06 14:37:00,
2013-01-06 06:42:00,44.2,40.0,30.10,SE,135,0.0,0.0,85,0.02,,,0.18,WUHU216HW,2013-01-06 14:42:00,
2013-01-06 06:47:00,44.2,40.0,30.10,SE,135,0.0,0.0,85,0.02,,,0.18,WUHU216HW,2013-01-06 14:47:00,
2013-01-06 06:52:00,44.2,39.7,30.10,SE,135,0.0,0.0,84,0.02,,,0.18,WUHU216HW,2013-01-06 14:52:00,
2013-01-06 06:57:00,44.2,39.7,30.10,SE,135,0.0,0.0,84,0.02,,,0.18,WUHU216HW,2013-01-06 14:57:00,
2013-01-06 07:02:00,44.2,39.7,30.11,SE,135,0.0,0.0,84,0.02,,,0.18,WUHU216HW,2013-01-06 15:02:00,
2013-01-06 07:07:00,44.2,40.0,30.11,SE,135,0.0,0.0,85,0.00,,,0.18,WUHU216HW,2013-01-06 15:07:00,
2013-01-06 07:12:00,44.2,40.0,30.11,SE,135,0.0,0.0,85,0.00,,,0.18,WUHU216HW,2013-01-06 15:12:00,
2013-01-06 07:17:00,44.2,40.0,30.11,SE,135,0.0,0.0,85,0.00,,,0.18,WUHU216HW,2013-01-06 15:17:00,
2013-01-06 07:22:00,44.2,40.0,30.11,SE,135,0.0,0.4,85,0.00,,,0.18,WUHU216HW,2013-01-06 15:22:00,
2013-01-06 07:27:00,44.2,40.0,30.11,SE,135,0.0,0.4,85,0.00,,,0.18,WUHU216HW,2013-01-06 15:27:00,
2013-01-06 07:32:00,44.2,40.0,30.12,SE,135,0.0,0.0,85,0.00,,,0.18,WUHU216HW,2013-01-06 15:32:00,
2013-01-06 07:37:00,44.2,40.0,30.11,SE,135,0.0,0.0,85,0.00,,,0.18,WUHU216HW,2013-01-06 15:37:00,
2013-01-06 07:42:00,44.4,40.0,30.11,SE,135,0.0,0.0,85,0.00,,,0.18,WUHU216HW,2013-01-06 15:42:00,
2013-01-06 07:47:00,44.2,40.0,30.12,SE,135,0.0,0.0,85,0.00,,,0.18,WUHU216HW,2013-01-06 15:47:00,
2013-01-06 07:52:00,44.2,40.0,30.12,SE,135,0.0,0.0,85,0.00,,,0.18,WUHU216HW,2013-01-06 15:52:00,
2013-01-06 07:57:00,44.4,40.0,30.12,SW,225,0.0,0.0,85,0.00,,,0.18,WUHU216HW,2013-01-06 15:57:00,
2013-01-06 08:02:00,44.4,40.1,30.12,SW,225,0.0,0.0,85,0.00,,,0.18,WUHU216HW,2013-01-06 16:02:00,
2013-01-06 08:07:00,44.4,40.1,30.12,SW,225,0.0,0.0,85,0.00,,,0.18,WUHU216HW,2013-01-06 16:07:00,
2013-01-06 08:12:00,44.6,40.3,30.12,SW,225,0.0,0.0,85,0.00,,,0.18,WUHU216HW,2013-01-06 16:12:00,
2013-01-06 08:17:00,44.4,40.1,30.12,SW,225,0.0,0.0,85,0.00,,,0.18,WUHU216HW,2013-01-06 16:17:00,
2013-01-06 08:22:00,44.6,40.3,30.12,SW,225,0.0,0.0,85,0.00,,,0.18,WUHU216HW,2013-01-06 16:22:00,
2013-01-06 08:27:00,44.6,40.3,30.12,ESE,113,0.0,0.0,85,0.00,,,0.18,WUHU216HW,2013-01-06 16:27:00,
2013-01-06 08:32:00,44.7,40.5,30.12,ESE,113,0.0,0.0,85,0.00,,,0.18,WUHU216HW,2013-01-06 16:32:00,
2013-01-06 08:37:00,44.7,40.5,30.13,SSE,158,0.0,0.0,85,0.00,,,0.18,WUHU216HW,2013-01-06 16:37:00,
2013-01-06 08:43:00,44.7,40.5,30.13,SSE,158,0.0,0.0,85,0.00,,,0.18,WUHU216HW,2013-01-06 16:43:00,
2013-01-06 08:48:00,44.7,40.5,30.14,SSE,158,0.0,0.0,85,0.00,,,0.18,WUHU216HW,2013-01-06 16:48:00,
2013-01-06 08:53:00,44.7,40.5,30.14,SSE,158,0.0,0.0,85,0.00,,,0.18,WUHU216HW,2013-01-06 16:53:00,
2013-01-06 08:58:00,44.7,40.5,30.14,SSE,158,0.0,0.0,85,0.00,,,0.18,WUHU216HW,2013-01-06 16:58:00,
2013-01-06 09:03:00,44.7,40.5,30.14,SSE,158,0.0,0.0,85,0.00,,,0.18,WUHU216HW,2013-01-06 17:03:00,
2013-01-06 09:08:00,44.7,40.5,30.14,SSE,158,0.0,0.0,85,0.00,,,0.18,WUHU216HW,2013-01-06 17:08:00,
2013-01-06 09:13:00,44.7,40.5,30.15,South,180,0.0,0.0,85,0.00,,,0.18,WUHU216HW,2013-01-06 17:13:00,
2013-01-06 09:18:00,44.7,40.5,30.15,South,180,0.0,0.0,85,0.00,,,0.18,WUHU216HW,2013-01-06 17:18:00,
2013-01-06 09:23:00,44.7,40.5,30.15,South,180,0.0,0.0,85,0.00,,,0.18,WUHU216HW,2013-01-06 17:23:00,
2013-01-06 09:28:00,44.7,40.5,30.15,South,180,0.0,0.0,85,0.00,,,0.18,WUHU216HW,2013-01-06 17:28:00,
2013-01-06 09:33:00,44.7,40.5,30.15,South,180,0.0,0.0,85,0.00,,,0.18,WUHU216HW,2013-01-06 17:33:00,
2013-01-06 09:38:00,44.7,40.5,30.16,South,180,0.0,0.0,85,0.00,,,0.18,WUHU216HW,2013-01-06 17:38:00,
2013-01-06 09:43:00,44.9,40.7,30.16,South,180,0.0,0.0,85,0.00,,,0.18,WUHU216HW,2013-01-06 17:43:00,
2013-01-06 09:48:00,44.9,40.7,30.16,South,180,0.0,0.0,85,0.00,,,0.18,WUHU216HW,2013-01-06 17:48:00,
2013-01-06 09:53:00,45.1,40.7,30.17,South,180,0.0,0.0,85,0.00,,,0.18,WUHU216HW,2013-01-06 17:53:00,
2013-01-06 09:58:00,45.1,41.2,30.17,South,180,0.0,0.0,86,0.00,,,0.18,WUHU216HW,2013-01-06 17:58:00,
2013-01-06 10:03:00,45.3,41.3,30.17,South,180,0.0,0.0,86,0.00,,,0.18,WUHU216HW,2013-01-06 18:03:00,
2013-01-06 10:08:00,45.5,41.5,30.17,South,180,0.0,0.0,86,0.00,,,0.18,WUHU216HW,2013-01-06 18:08:00,
2013-01-06 10:13:00,45.5,41.5,30.17,South,180,0.0,0.0,86,0.00,,,0.18,WUHU216HW,2013-01-06 18:13:00,
2013-01-06 10:18:00,45.5,41.5,30.17,South,180,0.0,0.0,86,0.00,,,0.18,WUHU216HW,2013-01-06 18:18:00,
2013-01-06 10:23:00,46.2,42.1,30.17,South,180,0.0,0.0,86,0.00,,,0.18,WUHU216HW,2013-01-06 18:23:00,
2013-01-06 10:28:00,46.2,42.6,30.17,South,180,0.0,0.0,87,0.00,,,0.18,WUHU216HW,2013-01-06 18:28:00,
2013-01-06 10:33:00,46.2,42.6,30.16,South,180,0.0,0.0,87,0.00,,,0.18,WUHU216HW,2013-01-06 18:33:00,
2013-01-06 10:38:00,46.7,43.1,30.16,SSE,158,0.0,0.0,87,0.00,,,0.18,WUHU216HW,2013-01-06 18:38:00,
2013-01-06 10:43:00,46.7,43.1,30.16,SSE,158,0.0,0.0,87,0.00,,,0.18,WUHU216HW,2013-01-06 18:43:00,
2013-01-06 10:48:00,47.6,43.9,30.15,SSE,158,0.0,0.0,87,0.00,,,0.18,WUHU216HW,2013-01-06 18:48:00,
2013-01-06 10:53:00,47.8,44.1,30.15,SSE,158,0.0,0.0,87,0.00,,,0.18,WUHU216HW,2013-01-06 18:53:00,
2013-01-06 10:58:00,48.3,45.0,30.15,SSE,158,0.0,0.0,88,0.00,,,0.18,WUHU216HW,2013-01-06 18:58:00,
2013-01-06 11:03:00,48.5,45.1,30.15,SSE,158,0.0,0.0,88,0.00,,,0.18,WUHU216HW,2013-01-06 19:03:00,
2013-01-06 11:08:00,48.9,45.5,30.15,ESE,113,0.0,0.0,88,0.00,,,0.18,WUHU216HW,2013-01-06 19:08:00,
2013-01-06 11:13:00,49.1,45.6,30.14,SSE,158,0.0,0.0,88,0.00,,,0.18,WUHU216HW,2013-01-06 19:13:00,
2013-01-06 11:18:00,49.1,45.6,30.14,SSE,158,0.0,0.0,88,0.00,,,0.18,WUHU216HW,2013-01-06 19:18:00,
2013-01-06 11:23:00,50.1,46.6,30.14,South,180,4.2,4.2,88,0.00,,,0.18,WUHU216HW,2013-01-06 19:23:00,
2013-01-06 11:28:00,50.7,47.2,30.13,SSE,158,0.0,4.2,88,0.00,,,0.18,WUHU216HW,2013-01-06 19:28:00,
2013-01-06 11:33:00,50.7,47.2,30.13,SSE,158,0.0,0.0,88,0.00,,,0.18,WUHU216HW,2013-01-06 19:33:00,
2013-01-06 11:38:00,50.7,47.2,30.13,SSE,158,0.0,0.0,88,0.00,,,0.18,WUHU216HW,2013-01-06 19:38:00,
2013-01-06 11:48:00,51.2,47.1,30.12,SSE,158,0.0,0.0,86,0.00,,,0.18,WUHU216HW,2013-01-06 19:48:00,
2013-01-06 11:53:00,51.0,46.9,30.12,SSE,158,0.0,0.0,86,0.00,,,0.18,WUHU216HW,2013-01-06 19:53:00,
2013-01-06 11:58:00,51.0,46.9,30.12,SE,135,0.0,0.0,86,0.00,,,0.18,WUHU216HW,2013-01-06 19:58:00,
2013-01-06 12:03:00,51.8,47.6,30.12,SE,135,0.0,0.0,86,0.00,,,0.18,WUHU216HW,2013-01-06 20:03:00,
2013-01-06 12:09:00,51.8,47.6,30.12,SE,135,0.0,0.0,86,0.00,,,0.18,WUHU216HW,2013-01-06 20:09:00,
2013-01-06 12:14:00,52.1,47.7,30.12,SSE,158,0.0,0.0,85,0.00,,,0.18,WUHU216HW,2013-01-06 20:14:00,
2013-01-06 12:19:00,52.1,47.4,30.12,ESE,113,0.0,0.0,84,0.00,,,0.18,WUHU216HW,2013-01-06 20:19:00,
2013-01-06 12:24:00,52.1,47.4,30.12,ESE,113,0.0,0.0,84,0.00,,,0.18,WUHU216HW,2013-01-06 20:24:00,
2013-01-06 12:29:00,52.3,47.0,30.12,SSE,158,0.0,0.0,82,0.00,,,0.18,WUHU216HW,2013-01-06 20:29:00,
2013-01-06 12:34:00,52.3,47.0,30.12,SE,135,0.0,0.0,82,0.00,,,0.18,WUHU216HW,2013-01-06 20:34:00,
2013-01-06 12:39:00,52.3,47.0,30.12,SE,135,0.0,0.0,82,0.00,,,0.18,WUHU216HW,2013-01-06 20:39:00,
2013-01-06 12:44:00,52.3,46.4,30.12,SE,135,0.0,0.0,80,0.00,,,0.18,WUHU216HW,2013-01-06 20:44:00,
2013-01-06 12:49:00,52.5,46.5,30.11,ESE,113,0.0,0.0,80,0.00,,,0.18,WUHU216HW,2013-01-06 20:49:00,
2013-01-06 12:54:00,52.5,46.2,30.11,ESE,113,0.0,0.0,79,0.00,,,0.18,WUHU216HW,2013-01-06 20:54:00,
2013-01-06 12:59:00,52.5,46.2,30.11,SSE,158,0.0,3.5,79,0.00,,,0.18,WUHU216HW,2013-01-06 20:59:00,
2013-01-06 13:04:00,52.5,46.2,30.11,SSE,158,0.0,3.5,79,0.00,,,0.18,WUHU216HW,2013-01-06 21:04:00,
2013-01-06 13:09:00,52.5,46.2,30.11,WNW,293,0.0,0.0,79,0.00,,,0.18,WUHU216HW,2013-01-06 21:09:00,
2013-01-06 13:14:00,52.5,46.2,30.11,WNW,293,0.0,0.0,79,0.00,,,0.18,WUHU216HW,2013-01-06 21:14:00,
2013-01-06 13:19:00,52.5,45.8,30.11,WNW,293,0.0,0.0,78,0.00,,,0.18,WUHU216HW,2013-01-06 21:19:00,
2013-01-06 13:24:00,52.5,45.5,30.11,ESE,113,0.0,2.0,77,0.00,,,0.18,WUHU216HW,2013-01-06 21:24:00,
2013-01-06 13:29:00,52.5,45.5,30.11,SSE,158,0.0,2.0,77,0.00,,,0.18,WUHU216HW,2013-01-06 21:29:00,
2013-01-06 13:34:00,52.3,45.5,30.11,SE,135,0.0,0.0,77,0.00,,,0.18,WUHU216HW,2013-01-06 21:34:00,
2013-01-06 13:39:00,52.5,45.5,30.11,SE,135,0.0,0.0,77,0.00,,,0.18,WUHU216HW,2013-01-06 21:39:00,
2013-01-06 13:44:00,52.5,45.5,30.11,North,0,0.0,0.0,77,0.00,,,0.18,WUHU216HW,2013-01-06 21:44:00,
2013-01-06 13:49:00,52.5,45.1,30.11,North,0,0.0,0.0,76,0.00,,,0.18,WUHU216HW,2013-01-06 21:49:00,
2013-01-06 13:54:00,52.5,45.1,30.11,North,0,0.0,0.0,76,0.00,,,0.18,WUHU216HW,2013-01-06 21:54:00,
2013-01-06 13:59:00,52.5,45.1,30.11,SE,135,0.0,0.0,76,0.00,,,0.18,WUHU216HW,2013-01-06 21:59:00,
2013-01-06 14:04:00,52.7,45.6,30.11,SE,135,0.0,0.0,77,0.00,,,0.18,WUHU216HW,2013-01-06 22:04:00,
2013-01-06 14:09:00,53.0,45.6,30.11,SE,135,0.0,0.0,76,0.00,,,0.18,WUHU216HW,2013-01-06 22:09:00,
2013-01-06 14:14:00,53.0,45.3,30.11,North,0,0.0,0.0,75,0.00,,,0.18,WUHU216HW,2013-01-06 22:14:00,
2013-01-06 14:19:00,53.6,46.5,30.11,North,0,0.0,0.0,77,0.00,,,0.18,WUHU216HW,2013-01-06 22:19:00,
2013-01-06 14:24:00,53.6,46.9,30.11,ENE,68,0.0,0.0,78,0.00,,,0.18,WUHU216HW,2013-01-06 22:24:00,
2013-01-06 14:29:00,55.9,49.8,30.11,ENE,68,0.0,0.0,80,0.00,,,0.18,WUHU216HW,2013-01-06 22:29:00,
2013-01-06 14:35:00,57.3,49.8,30.11,SSE,158,0.0,0.0,76,0.00,,,0.18,WUHU216HW,2013-01-06 22:35:00,
2013-01-06 14:40:00,57.3,49.4,30.11,SSE,158,0.0,0.0,75,0.00,,,0.18,WUHU216HW,2013-01-06 22:40:00,
2013-01-06 14:45:00,57.3,49.4,30.10,SSE,158,0.0,0.0,75,0.00,,,0.18,WUHU216HW,2013-01-06 22:45:00,
2013-01-06 14:50:00,60.6,51.2,30.10,SSE,158,0.0,0.0,71,0.00,,,0.18,WUHU216HW,2013-01-06 22:50:00,
2013-01-06 14:55:00,61.1,50.1,30.10,WSW,248,0.0,0.0,67,0.00,,,0.18,WUHU216HW,2013-01-06 22:55:00,
2013-01-06 15:00:00,61.1,49.7,30.10,WSW,248,0.0,0.0,66,0.00,,,0.18,WUHU216HW,2013-01-06 23:00:00,
2013-01-06 15:05:00,61.1,47.2,30.10,NNW,338,0.0,0.0,60,0.00,,,0.18,WUHU216HW,2013-01-06 23:05:00,
2013-01-06 15:10:00,62.9,48.3,30.10,NW,315,0.0,0.0,59,0.00,,,0.18,WUHU216HW,2013-01-06 23:10:00,
2013-01-06 15:15:00,62.9,47.9,30.10,NNW,338,2.2,2.2,58,0.00,,,0.18,WUHU216HW,2013-01-06 23:15:00,
2013-01-06 15:20:00,62.9,47.4,30.10,NW,315,0.0,2.2,57,0.00,,,0.18,WUHU216HW,2013-01-06 23:20:00,
2013-01-06 15:25:00,62.9,47.4,30.10,NW,315,0.0,2.2,57,0.00,,,0.18,WUHU216HW,2013-01-06 23:25:00,
2013-01-06 15:30:00,62.9,47.4,30.10,East,90,0.0,0.0,57,0.00,,,0.18,WUHU216HW,2013-01-06 23:30:00,
2013-01-06 15:35:00,62.9,47.4,30.10,North,0,0.0,0.0,57,0.00,,,0.18,WUHU216HW,2013-01-06 23:35:00,
2013-01-06 15:40:00,63.1,47.1,30.10,North,0,0.0,0.0,56,0.00,,,0.18,WUHU216HW,2013-01-06 23:40:00,
2013-01-06 15:45:00,63.1,47.1,30.10,NNW,338,0.0,0.0,56,0.00,,,0.18,WUHU216HW,2013-01-06 23:45:00,
2013-01-06 15:50:00,63.1,47.1,30.10,NNW,338,0.0,0.0,56,0.00,,,0.18,WUHU216HW,2013-01-06 23:50:00,
2013-01-06 15:55:00,62.6,46.6,30.10,NNW,338,0.0,0.0,56,0.00,,,0.18,WUHU216HW,2013-01-06 23:55:00,
2013-01-06 16:00:00,62.6,46.6,30.10,NNW,338,0.0,0.0,56,0.00,,,0.18,WUHU216HW,2013-01-07 00:00:00,
2013-01-06 16:05:00,60.6,43.8,30.10,NNW,338,0.0,0.0,54,0.00,,,0.18,WUHU216HW,2013-01-07 00:05:00,
2013-01-06 16:10:00,59.5,43.3,30.10,NNW,338,0.0,0.0,55,0.00,,,0.18,WUHU216HW,2013-01-07 00:10:00,
2013-01-06 16:15:00,58.4,42.3,30.10,NNW,338,0.0,0.0,55,0.00,,,0.18,WUHU216HW,2013-01-07 00:15:00,
2013-01-06 16:20:00,57.5,41.5,30.10,NNW,338,0.0,0.0,55,0.00,,,0.18,WUHU216HW,2013-01-07 00:20:00,
2013-01-06 16:25:00,56.8,41.7,30.10,NNW,338,0.0,0.0,57,0.00,,,0.18,WUHU216HW,2013-01-07 00:25:00,
2013-01-06 16:30:00,56.3,41.2,30.10,NNW,338,0.0,0.0,57,0.00,,,0.18,WUHU216HW,2013-01-07 00:30:00,
2013-01-06 16:35:00,56.3,41.6,30.10,NNW,338,0.0,0.0,58,0.00,,,0.18,WUHU216HW,2013-01-07 00:35:00,
2013-01-06 16:40:00,54.5,40.4,30.10,NNW,338,0.0,0.0,59,0.00,,,0.18,WUHU216HW,2013-01-07 00:40:00,
2013-01-06 16:45:00,54.5,40.9,30.11,North,0,0.0,0.0,60,0.00,,,0.18,WUHU216HW,2013-01-07 00:45:00,
2013-01-06 16:50:00,53.9,40.8,30.10,North,0,0.0,0.0,61,0.00,,,0.18,WUHU216HW,2013-01-07 00:50:00,
2013-01-06 16:55:00,53.9,40.8,30.10,NNE,23,0.0,0.0,61,0.00,,,0.18,WUHU216HW,2013-01-07 00:55:00,
2013-01-06 17:01:00,53.9,40.8,30.10,NNE,23,0.0,0.0,61,0.00,,,0.18,WUHU216HW,2013-01-07 01:01:00,
2013-01-06 17:06:00,52.7,40.0,30.10,East,90,0.0,0.0,62,0.00,,,0.18,WUHU216HW,2013-01-07 01:06:00,
2013-01-06 17:11:00,52.1,39.4,30.11,East,90,0.0,0.0,62,0.00,,,0.18,WUHU216HW,2013-01-07 01:11:00,
2013-01-06 17:16:00,51.8,39.9,30.11,East,90,0.0,0.0,64,0.00,,,0.18,WUHU216HW,2013-01-07 01:16:00,
2013-01-06 17:21:00,51.2,39.4,30.11,ENE,68,0.0,0.0,64,0.00,,,0.18,WUHU216HW,2013-01-07 01:21:00,
2013-01-06 17:26:00,51.0,39.2,30.11,East,90,0.0,0.0,64,0.00,,,0.18,WUHU216HW,2013-01-07 01:26:00,
2013-01-06 17:31:00,51.0,39.6,30.11,East,90,0.0,0.0,65,0.00,,,0.18,WUHU216HW,2013-01-07 01:31:00,
2013-01-06 17:36:00,50.3,39.3,30.11,East,90,0.0,0.0,66,0.00,,,0.18,WUHU216HW,2013-01-07 01:36:00,
2013-01-06 17:41:00,50.3,39.3,30.11,East,90,0.0,0.0,66,0.00,,,0.18,WUHU216HW,2013-01-07 01:41:00,
2013-01-06 17:46:00,50.0,39.0,30.11,East,90,0.0,0.0,66,0.00,,,0.18,WUHU216HW,2013-01-07 01:46:00,
2013-01-06 17:51:00,49.4,38.5,30.11,East,90,0.0,0.0,66,0.00,,,0.18,WUHU216HW,2013-01-07 01:51:00,
2013-01-06 17:56:00,49.4,38.5,30.11,East,90,0.0,0.0,66,0.00,,,0.18,WUHU216HW,2013-01-07 01:56:00,
2013-01-06 18:01:00,48.7,38.2,30.11,East,90,0.0,0.0,67,0.00,,,0.18,WUHU216HW,2013-01-07 02:01:00,
2013-01-06 18:06:00,48.2,38.0,30.11,East,90,0.0,0.0,68,0.00,,,0.18,WUHU216HW,2013-01-07 02:06:00,
2013-01-06 18:11:00,48.2,38.0,30.12,East,90,0.0,0.0,68,0.00,,,0.18,WUHU216HW,2013-01-07 02:11:00,
2013-01-06 18:16:00,47.4,37.4,30.12,East,90,0.0,0.0,68,0.00,,,0.18,WUHU216HW,2013-01-07 02:16:00,
2013-01-06 18:21:00,46.9,36.9,30.12,East,90,0.0,0.0,68,0.00,,,0.18,WUHU216HW,2013-01-07 02:21:00,
2013-01-06 18:26:00,46.7,37.1,30.12,East,90,0.0,0.0,69,0.00,,,0.18,WUHU216HW,2013-01-07 02:26:00,
2013-01-06 18:31:00,46.4,36.8,30.12,East,90,0.0,0.0,69,0.00,,,0.18,WUHU216HW,2013-01-07 02:31:00,
2013-01-06 18:36:00,46.0,36.4,30.12,SE,135,0.0,0.0,69,0.00,,,0.18,WUHU216HW,2013-01-07 02:36:00,
2013-01-06 18:41:00,46.0,36.8,30.13,SE,135,0.0,0.0,70,0.00,,,0.18,WUHU216HW,2013-01-07 02:41:00,
2013-01-06 18:46:00,45.3,36.1,30.13,SE,135,0.0,0.0,70,0.00,,,0.18,WUHU216HW,2013-01-07 02:46:00,
2013-01-06 18:51:00,45.3,36.1,30.13,SE,135,0.0,0.0,70,0.00,,,0.18,WUHU216HW,2013-01-07 02:51:00,
2013-01-06 18:56:00,44.9,35.7,30.13,SE,135,0.0,0.0,72,0.00,,,0.18,WUHU216HW,2013-01-07 02:56:00,
2013-01-06 19:01:00,44.9,36.4,30.12,SE,135,0.0,0.0,72,0.00,,,0.18,WUHU216HW,2013-01-07 03:01:00,
2013-01-06 19:06:00,44.4,35.9,30.12,SE,135,0.0,0.0,72,0.00,,,0.18,WUHU216HW,2013-01-07 03:06:00,
2013-01-06 19:11:00,44.4,36.2,30.12,SE,135,0.0,0.0,73,0.00,,,0.18,WUHU216HW,2013-01-07 03:11:00,
2013-01-06 19:16:00,44.2,36.1,30.12,SE,135,0.0,0.0,73,0.00,,,0.18,WUHU216HW,2013-01-07 03:16:00,
2013-01-06 19:21:00,43.8,35.7,30.12,SE,135,0.0,0.0,73,0.00,,,0.18,WUHU216HW,2013-01-07 03:21:00,
2013-01-06 19:26:00,43.7,35.7,30.12,SE,135,0.0,0.0,73,0.00,,,0.18,WUHU216HW,2013-01-07 03:26:00,
2013-01-06 19:31:00,43.5,35.4,30.11,SE,135,0.0,0.0,73,0.00,,,0.18,WUHU216HW,2013-01-07 03:31:00,
2013-01-06 19:36:00,43.5,35.4,30.12,SE,135,0.0,0.0,73,0.00,,,0.18,WUHU216HW,2013-01-07 03:36:00,
2013-01-06 19:41:00,43.1,35.4,30.12,SE,135,0.0,0.0,74,0.00,,,0.18,WUHU216HW,2013-01-07 03:41:00,
2013-01-06 19:46:00,43.1,35.4,30.13,SE,135,0.0,0.0,74,0.00,,,0.18,WUHU216HW,2013-01-07 03:46:00,
2013-01-06 19:51:00,42.6,35.2,30.13,SE,135,0.0,0.0,75,0.00,,,0.18,WUHU216HW,2013-01-07 03:51:00,
2013-01-06 19:56:00,42.2,34.5,30.13,SE,135,0.0,0.0,74,0.00,,,0.18,WUHU216HW,2013-01-07 03:56:00,
2013-01-06 20:01:00,42.2,34.5,30.13,SE,135,0.0,0.0,74,0.00,,,0.18,WUHU216HW,2013-01-07 04:01:00,
2013-01-06 20:06:00,42.2,34.5,30.13,SE,135,0.0,0.0,74,0.00,,,0.18,WUHU216HW,2013-01-07 04:06:00,
2013-01-06 20:11:00,41.7,34.3,30.13,SE,135,0.0,0.0,75,0.00,,,0.18,WUHU216HW,2013-01-07 04:11:00,
2013-01-06 20:16:00,41.5,34.4,30.14,SE,135,0.0,0.0,76,0.00,,,0.18,WUHU216HW,2013-01-07 04:16:00,
2013-01-06 20:21:00,41.3,34.3,30.14,SE,135,0.0,0.0,76,0.00,,,0.18,WUHU216HW,2013-01-07 04:21:00,
2013-01-06 20:26:00,41.1,34.1,30.14,SE,135,0.0,0.0,76,0.00,,,0.18,WUHU216HW,2013-01-07 04:26:00,
2013-01-06 20:31:00,41.1,34.1,30.14,SE,135,0.0,0.0,76,0.00,,,0.18,WUHU216HW,2013-01-07 04:31:00,
2013-01-06 20:36:00,41.1,34.4,30.14,SE,135,0.0,0.0,77,0.00,,,0.18,WUHU216HW,2013-01-07 04:36:00,
2013-01-06 20:41:00,40.6,33.9,30.15,SE,135,0.0,0.0,77,0.00,,,0.18,WUHU216HW,2013-01-07 04:41:00,
2013-01-06 20:46:00,40.6,33.9,30.15,SE,135,0.0,0.0,77,0.00,,,0.18,WUHU216HW,2013-01-07 04:46:00,
2013-01-06 20:51:00,40.4,33.7,30.15,SE,135,0.0,0.0,77,0.00,,,0.18,WUHU216HW,2013-01-07 04:51:00,
2013-01-06 20:56:00,40.1,33.4,30.15,SE,135,0.0,0.0,77,0.00,,,0.18,WUHU216HW,2013-01-07 04:56:00,
2013-01-06 21:01:00,40.1,33.4,30.15,SE,135,0.0,0.0,77,0.00,,,0.18,WUHU216HW,2013-01-07 05:01:00,
2013-01-06 21:06:00,39.9,33.2,30.15,SE,135,0.0,0.0,77,0.00,,,0.18,WUHU216HW,2013-01-07 05:06:00,
2013-01-06 21:11:00,39.9,33.2,30.14,SE,135,0.0,0.0,77,0.00,,,0.18,WUHU216HW,2013-01-07 05:11:00,
2013-01-06 21:16:00,39.5,32.9,30.14,SE,135,0.0,0.0,77,0.00,,,0.18,WUHU216HW,2013-01-07 05:16:00,
2013-01-06 21:21:00,39.5,32.9,30.14,SE,135,0.0,0.0,77,0.00,,,0.18,WUHU216HW,2013-01-07 05:21:00,
2013-01-06 21:26:00,39.3,32.7,30.14,SE,135,0.0,0.0,77,0.00,,,0.18,WUHU216HW,2013-01-07 05:26:00,
2013-01-06 21:32:00,39.3,32.7,30.13,SE,135,0.0,0.0,77,0.00,,,0.18,WUHU216HW,2013-01-07 05:32:00,
2013-01-06 21:37:00,38.8,32.2,30.13,SE,135,0.0,0.0,77,0.00,,,0.18,WUHU216HW,2013-01-07 05:37:00,
2013-01-06 21:42:00,38.8,32.2,30.13,SE,135,0.0,0.0,77,0.00,,,0.18,WUHU216HW,2013-01-07 05:42:00,
2013-01-06 21:47:00,38.8,32.2,30.13,SE,135,0.0,0.0,77,0.00,,,0.18,WUHU216HW,2013-01-07 05:47:00,
2013-01-06 21:52:00,38.6,32.0,30.13,SE,135,0.0,0.0,77,0.00,,,0.18,WUHU216HW,2013-01-07 05:52:00,
2013-01-06 21:57:00,38.3,31.7,30.13,SE,135,0.0,0.0,77,0.00,,,0.18,WUHU216HW,2013-01-07 05:57:00,
2013-01-06 22:02:00,38.3,31.7,30.12,SE,135,0.0,0.0,77,0.00,,,0.18,WUHU216HW,2013-01-07 06:02:00,
2013-01-06 22:07:00,38.1,31.7,30.12,SE,135,0.0,0.0,77,0.00,,,0.18,WUHU216HW,2013-01-07 06:07:00,
2013-01-06 22:12:00,38.1,31.5,30.12,SE,135,0.0,0.0,77,0.00,,,0.18,WUHU216HW,2013-01-07 06:12:00,
2013-01-06 22:17:00,37.9,31.3,30.12,SE,135,0.0,0.0,77,0.00,,,0.18,WUHU216HW,2013-01-07 06:17:00,
2013-01-06 22:22:00,37.7,31.1,30.12,SE,135,0.0,0.0,77,0.00,,,0.18,WUHU216HW,2013-01-07 06:22:00,
2013-01-06 22:27:00,37.5,31.0,30.13,SE,135,0.0,0.0,77,0.00,,,0.18,WUHU216HW,2013-01-07 06:27:00,
2013-01-06 22:32:00,37.5,31.0,30.13,SE,135,0.0,0.0,77,0.00,,,0.18,WUHU216HW,2013-01-07 06:32:00,
2013-01-06 22:37:00,37.2,30.6,30.13,SE,135,0.0,0.0,77,0.00,,,0.18,WUHU216HW,2013-01-07 06:37:00,
2013-01-06 22:42:00,37.0,30.4,30.13,SE,135,0.0,0.0,77,0.00,,,0.18,WUHU216HW,2013-01-07 06:42:00,
2013-01-06 22:47:00,36.8,30.3,30.13,SE,135,0.0,0.0,77,0.00,,,0.18,WUHU216HW,2013-01-07 06:47:00,
2013-01-06 22:52:00,36.8,30.3,30.13,SE,135,0.0,0.0,77,0.00,,,0.18,WUHU216HW,2013-01-07 06:52:00,
2013-01-06 22:57:00,36.6,30.1,30.13,SE,135,0.0,0.0,77,0.00,,,0.18,WUHU216HW,2013-01-07 06:57:00,
2013-01-06 23:02:00,36.6,30.1,30.13,SE,135,0.0,0.0,77,0.00,,,0.18,WUHU216HW,2013-01-07 07:02:00,
2013-01-06 23:07:00,36.6,30.1,30.14,SE,135,0.0,0.0,77,0.00,,,0.18,WUHU216HW,2013-01-07 07:07:00,
2013-01-06 23:12:00,36.1,29.9,30.14,SE,135,0.0,0.0,78,0.00,,,0.18,WUHU216HW,2013-01-07 07:12:00,
2013-01-06 23:17:00,36.1,29.9,30.14,SE,135,0.0,0.0,78,0.00,,,0.18,WUHU216HW,2013-01-07 07:17:00,
2013-01-06 23:22:00,35.9,29.7,30.13,SE,135,0.0,0.0,78,0.00,,,0.18,WUHU216HW,2013-01-07 07:22:00,
2013-01-06 23:27:00,35.9,29.7,30.13,SE,135,0.0,0.0,78,0.00,,,0.18,WUHU216HW,2013-01-07 07:27:00,
2013-01-06 23:32:00,35.7,29.5,30.14,SE,135,0.0,0.0,78,0.00,,,0.18,WUHU216HW,2013-01-07 07:32:00,
2013-01-06 23:37:00,35.7,29.5,30.14,SE,135,0.0,0.0,78,0.00,,,0.18,WUHU216HW,2013-01-07 07:37:00,
2013-01-06 23:42:00,35.6,29.3,30.14,SE,135,0.0,0.0,78,0.00,,,0.18,WUHU216HW,2013-01-07 07:42:00,
2013-01-06 23:47:00,35.4,29.1,30.13,SE,135,0.0,0.0,78,0.00,,,0.18,WUHU216HW,2013-01-07 07:47:00,
2013-01-06 23:52:00,35.4,29.1,30.14,SE,135,0.0,0.0,78,0.00,,,0.18,WUHU216HW,2013-01-07 07:52:00,
2013-01-06 23:57:00,35.2,29.0,30.14,SE,135,0.0,0.0,78,0.00,,,0.18,WUHU216HW,2013-01-07 07:57:00,